COSMOS 2251 DEB, 34682

Orbit data source: Space-Track

COSMOS 2251 DEB, 34682 is space debris in LEO originally from a launch on Wed, 16 Jun 1993 UTC launched from the Plesetsk Missile And Space Complex (PKMTR). The debris from Iridium 33, an American commercial communications satellite, has been tracked extensively since its accidental collision with the defunct Russian satellite Cosmos 2251 in 2009. This event, occurring at high speed in low Earth orbit (LEO), generated thousands of pieces of space debris, significantly increasing the risk of further collisions. The Iridium 33 debris cloud has impacted space traffic management and orbital debris mitigation strategies, making it a subject of ongoing study in space situational awareness.

Loading next visibility...
Identifier
34682, 1993-036YC
Orbit
LEO
Country
Flag of CISCIS
Related business
Manufacturer
Unknown
Mission
Spacecraft
Bus & Motor
Unknown
Mass
Unknown
Launch date (UTC)
1993-06-16 (33 years ago)
Launch vehicle
Unknown
Launch site
Plesetsk Missile And Space Complex (PKMTR)
Object type
Payload
Rocket body
Debris
Shape & HBR
Unknown shape, 0.1 m
Radar Cross Section
Small (<0.1 m²)

Expand to show TLE details & history
Last TLE update: 9 hours ago

TLE from 9 hours ago
0 COSMOS 2251 DEB
1 34682U 93036YC  25353.97607711  .00002231  00000-0  48085-3 0  9996
2 34682  74.0399  69.2067 0017987 201.6181 337.6822 14.58941947887914
Epoch: 2025-12-19T23:25Z
TLE epoch observation values (Epoch: 2025-12-19T23:25:33.062Z)
Latitude
0.64005°
Longitude
168.82736°
Altitude
687.38 km
Speed
7.519 km/s
True Right ascension
16h 36m 05s
True Declination
0° 38' 10"
Sunlit
Object was in daylight at epoch
Visualization orbit readout
Latitude
Unknown
Longitude
Unknown
Altitude
Unknown
Speed
Unknown
Apparent Right ascension
Unknown
Apparent Declination
Unknown
Sunlit
N/A
Visualization observer readout
Local Sidereal Time
07:10:15
Azimuth
Unknown
Elevation
Unknown
Doppler factor
Unknown
Orbital elements
Apogee altitude
706.912 km
Perigee altitude
681.47 km
Semi-major axis
7,072.328 km
Eccentricity
0.0018
Inclination
74.0399°
RAAN
69.2067°
Arg. of periapsis
201.6181°
True anomaly
337.60377°
Mean anomaly
337.6822°
Eccentric anomaly
337.643°
Mean motion
3.64922 °/min
Orbital period
98.65 mins
BSTAR
0.00048085
Loading maneuver chart data...
Computing Atmospheric mass density...

Documentation

Showing up to 5 results
|